Time,TemperatureF,DewpointF,PressureIn,WindDirection,WindDirectionDegrees,WindSpeedMPH,WindSpeedGustMPH,Humidity,HourlyPrecipIn,Conditions,Clouds,dailyrainin,SoftwareType,DateUTC
2013-11-08 00:05:00,49.1,44.0,30.34,North,349,2.0,4.0,84,0.00,,,0.00,weatherlink.com 1.10,2013-11-08 06:05:00,
2013-11-08 00:19:00,49.0,44.0,30.34,North,4,1.0,4.0,84,0.00,,,0.00,weatherlink.com 1.10,2013-11-08 06:19:00,
2013-11-08 00:34:00,48.9,44.0,30.34,North,354,3.0,4.0,84,0.00,,,0.00,weatherlink.com 1.10,2013-11-08 06:34:00,
2013-11-08 00:49:00,48.7,44.0,30.34,NE,38,3.0,6.0,84,0.00,,,0.00,weatherlink.com 1.10,2013-11-08 06:49:00,
2013-11-08 01:04:00,48.5,44.0,30.33,NNE,32,2.0,4.0,84,0.00,,,0.00,weatherlink.com 1.10,2013-11-08 07:04:00,
2013-11-08 01:19:00,48.3,44.0,30.33,North,11,2.0,4.0,84,0.00,,,0.00,weatherlink.com 1.10,2013-11-08 07:19:00,
2013-11-08 01:34:00,48.2,44.0,30.34,NNE,23,5.0,6.0,85,0.00,,,0.00,weatherlink.com 1.10,2013-11-08 07:34:00,
2013-11-08 01:49:00,48.1,43.0,30.34,ENE,60,2.0,5.0,84,0.00,,,0.00,weatherlink.com 1.10,2013-11-08 07:49:00,
2013-11-08 02:04:00,47.9,44.0,30.33,NNE,13,2.0,4.0,85,0.00,,,0.00,weatherlink.com 1.10,2013-11-08 08:04:00,
2013-11-08 02:19:00,47.6,43.0,30.34,NNE,21,2.0,3.0,85,0.00,,,0.00,weatherlink.com 1.10,2013-11-08 08:19:00,
2013-11-08 02:34:00,47.2,43.0,30.32,NE,56,3.0,4.0,86,0.00,,,0.00,weatherlink.com 1.10,2013-11-08 08:34:00,
2013-11-08 02:49:00,46.9,43.0,30.33,NNE,23,2.0,3.0,87,0.00,,,0.00,weatherlink.com 1.10,2013-11-08 08:49:00,
2013-11-08 03:04:00,46.7,43.0,30.33,NE,37,1.0,4.0,88,0.00,,,0.00,weatherlink.com 1.10,2013-11-08 09:04:00,
2013-11-08 03:19:00,46.4,43.0,30.32,NE,41,2.0,3.0,88,0.00,,,0.00,weatherlink.com 1.10,2013-11-08 09:19:00,
2013-11-08 03:34:00,46.2,43.0,30.33,NNE,19,3.0,4.0,88,0.00,,,0.00,weatherlink.com 1.10,2013-11-08 09:34:00,
2013-11-08 03:49:00,45.8,43.0,30.33,NNE,25,2.0,3.0,89,0.00,,,0.00,weatherlink.com 1.10,2013-11-08 09:49:00,
2013-11-08 04:04:00,45.6,43.0,30.32,ENE,68,0.0,3.0,89,0.00,,,0.00,weatherlink.com 1.10,2013-11-08 10:04:00,
2013-11-08 04:19:00,45.3,42.0,30.34,North,6,2.0,2.0,89,0.00,,,0.00,weatherlink.com 1.10,2013-11-08 10:19:00,
2013-11-08 04:34:00,45.1,42.0,30.34,NNE,13,2.0,2.0,89,0.00,,,0.00,weatherlink.com 1.10,2013-11-08 10:34:00,
2013-11-08 04:49:00,44.8,42.0,30.33,ENE,73,1.0,2.0,90,0.00,,,0.00,weatherlink.com 1.10,2013-11-08 10:49:00,
2013-11-08 05:04:00,44.8,42.0,30.33,NNE,25,3.0,3.0,90,0.00,,,0.00,weatherlink.com 1.10,2013-11-08 11:04:00,
2013-11-08 05:19:00,45.0,42.0,30.33,NNE,32,2.0,3.0,89,0.00,,,0.00,weatherlink.com 1.10,2013-11-08 11:19:00,
2013-11-08 05:34:00,45.1,42.0,30.34,NNW,347,2.0,3.0,89,0.00,,,0.00,weatherlink.com 1.10,2013-11-08 11:34:00,
2013-11-08 05:49:00,44.9,42.0,30.34,NNE,32,1.0,3.0,89,0.00,,,0.00,weatherlink.com 1.10,2013-11-08 11:49:00,
2013-11-08 06:04:00,44.7,42.0,30.34,North,3,1.0,2.0,90,0.00,,,0.00,weatherlink.com 1.10,2013-11-08 12:04:00,
2013-11-08 06:19:00,44.5,42.0,30.34,NNE,20,1.0,3.0,90,0.00,,,0.00,weatherlink.com 1.10,2013-11-08 12:19:00,
2013-11-08 06:34:00,44.5,42.0,30.34,North,353,2.0,3.0,90,0.00,,,0.00,weatherlink.com 1.10,2013-11-08 12:34:00,
2013-11-08 06:49:00,44.5,42.0,30.35,NNE,32,0.0,4.0,90,0.00,,,0.00,weatherlink.com 1.10,2013-11-08 12:49:00,
2013-11-08 07:04:00,45.2,42.0,30.35,East,91,2.0,4.0,90,0.00,,,0.00,weatherlink.com 1.10,2013-11-08 13:04:00,
2013-11-08 07:19:00,46.4,43.0,30.35,ENE,58,5.0,5.0,87,0.00,,,0.00,weatherlink.com 1.10,2013-11-08 13:19:00,
2013-11-08 07:33:00,46.4,43.0,30.36,NE,41,2.0,5.0,87,0.00,,,0.00,weatherlink.com 1.10,2013-11-08 13:33:00,
2013-11-08 07:48:00,47.0,43.0,30.36,NNE,32,1.0,4.0,85,0.00,,,0.00,weatherlink.com 1.10,2013-11-08 13:48:00,
2013-11-08 08:03:00,47.3,43.0,30.36,NNE,18,2.0,4.0,85,0.00,,,0.00,weatherlink.com 1.10,2013-11-08 14:03:00,
2013-11-08 08:18:00,48.8,44.0,30.37,East,90,3.0,5.0,84,0.00,,,0.00,weatherlink.com 1.10,2013-11-08 14:18:00,
2013-11-08 08:33:00,50.5,43.0,30.38,East,84,2.0,13.0,74,0.00,,,0.00,weatherlink.com 1.10,2013-11-08 14:33:00,
2013-11-08 08:48:00,51.9,42.0,30.38,ENE,68,7.0,15.0,68,0.00,,,0.00,weatherlink.com 1.10,2013-11-08 14:48:00,
2013-11-08 09:03:00,53.4,42.0,30.38,North,1,5.0,12.0,66,0.00,,,0.00,weatherlink.com 1.10,2013-11-08 15:03:00,
2013-11-08 09:19:00,54.6,41.0,30.38,ENE,65,6.0,13.0,59,0.00,,,0.00,weatherlink.com 1.10,2013-11-08 15:19:00,
2013-11-08 09:34:00,55.5,40.0,30.37,NNE,22,11.0,17.0,56,0.00,,,0.00,weatherlink.com 1.10,2013-11-08 15:34:00,
2013-11-08 09:49:00,56.8,40.0,30.37,East,86,6.0,14.0,54,0.00,,,0.00,weatherlink.com 1.10,2013-11-08 15:49:00,
2013-11-08 10:04:00,57.5,40.0,30.36,ENE,72,7.0,16.0,53,0.00,,,0.00,weatherlink.com 1.10,2013-11-08 16:04:00,
2013-11-08 10:19:00,58.3,40.0,30.36,NE,41,8.0,15.0,51,0.00,,,0.00,weatherlink.com 1.10,2013-11-08 16:19:00,
2013-11-08 10:34:00,58.9,40.0,30.35,ENE,78,7.0,13.0,49,0.00,,,0.00,weatherlink.com 1.10,2013-11-08 16:34:00,
2013-11-08 10:49:00,60.0,41.0,30.34,ENE,61,6.0,16.0,50,0.00,,,0.00,weatherlink.com 1.10,2013-11-08 16:49:00,
2013-11-08 11:04:00,60.1,41.0,30.34,ENE,77,6.0,15.0,49,0.00,,,0.00,weatherlink.com 1.10,2013-11-08 17:04:00,
2013-11-08 11:19:00,61.1,42.0,30.33,ENE,68,6.0,12.0,50,0.00,,,0.00,weatherlink.com 1.10,2013-11-08 17:19:00,
2013-11-08 11:34:00,61.0,40.0,30.33,NE,35,8.0,17.0,46,0.00,,,0.00,weatherlink.com 1.10,2013-11-08 17:34:00,
2013-11-08 11:49:00,61.3,40.0,30.32,NE,55,9.0,17.0,46,0.00,,,0.00,weatherlink.com 1.10,2013-11-08 17:49:00,
2013-11-08 12:04:00,62.2,41.0,30.30,NNE,30,4.0,13.0,45,0.00,,,0.00,weatherlink.com 1.10,2013-11-08 18:04:00,
2013-11-08 12:19:00,62.5,40.0,30.29,ENE,61,12.0,16.0,44,0.00,,,0.00,weatherlink.com 1.10,2013-11-08 18:19:00,
2013-11-08 12:34:00,62.1,40.0,30.28,NE,55,5.0,13.0,44,0.00,,,0.00,weatherlink.com 1.10,2013-11-08 18:34:00,
2013-11-08 12:49:00,62.2,39.0,30.28,NE,51,13.0,19.0,43,0.00,,,0.00,weatherlink.com 1.10,2013-11-08 18:49:00,
2013-11-08 13:04:00,62.8,40.0,30.27,NE,53,12.0,14.0,43,0.00,,,0.00,weatherlink.com 1.10,2013-11-08 19:04:00,
2013-11-08 13:19:00,63.4,41.0,30.26,East,84,4.0,10.0,44,0.00,,,0.00,weatherlink.com 1.10,2013-11-08 19:19:00,
2013-11-08 13:34:00,63.5,39.0,30.25,East,79,6.0,13.0,40,0.00,,,0.00,weatherlink.com 1.10,2013-11-08 19:34:00,
2013-11-08 13:49:00,64.0,41.0,30.25,NE,41,3.0,7.0,43,0.00,,,0.00,weatherlink.com 1.10,2013-11-08 19:49:00,
2013-11-08 14:04:00,64.0,41.0,30.25,ENE,70,2.0,13.0,43,0.00,,,0.00,weatherlink.com 1.10,2013-11-08 20:04:00,
2013-11-08 14:19:00,63.9,42.0,30.24,East,83,3.0,9.0,44,0.00,,,0.00,weatherlink.com 1.10,2013-11-08 20:19:00,
2013-11-08 14:34:00,63.9,42.0,30.24,NE,46,8.0,11.0,44,0.00,,,0.00,weatherlink.com 1.10,2013-11-08 20:34:00,
2013-11-08 14:49:00,63.7,41.0,30.23,ENE,67,6.0,10.0,44,0.00,,,0.00,weatherlink.com 1.10,2013-11-08 20:49:00,
2013-11-08 15:04:00,63.8,42.0,30.24,East,82,4.0,11.0,45,0.00,,,0.00,weatherlink.com 1.10,2013-11-08 21:04:00,
2013-11-08 15:19:00,63.7,43.0,30.24,NE,36,8.0,8.0,47,0.00,,,0.00,weatherlink.com 1.10,2013-11-08 21:19:00,
2013-11-08 15:34:00,63.9,42.0,30.24,NE,47,6.0,7.0,44,0.00,,,0.00,weatherlink.com 1.10,2013-11-08 21:34:00,
2013-11-08 15:49:00,63.4,43.0,30.24,NE,39,0.0,6.0,47,0.00,,,0.00,weatherlink.com 1.10,2013-11-08 21:49:00,
2013-11-08 16:04:00,62.9,44.0,30.23,NNE,33,3.0,5.0,50,0.00,,,0.00,weatherlink.com 1.10,2013-11-08 22:04:00,
2013-11-08 16:19:00,62.4,44.0,30.23,NE,47,4.0,4.0,51,0.00,,,0.00,weatherlink.com 1.10,2013-11-08 22:19:00,
2013-11-08 16:34:00,62.1,45.0,30.22,NE,41,3.0,4.0,54,0.00,,,0.00,weatherlink.com 1.10,2013-11-08 22:34:00,
2013-11-08 16:49:00,61.8,45.0,30.22,NE,39,3.0,4.0,54,0.00,,,0.00,weatherlink.com 1.10,2013-11-08 22:49:00,
2013-11-08 17:04:00,61.4,45.0,30.22,NE,47,5.0,5.0,55,0.00,,,0.00,weatherlink.com 1.10,2013-11-08 23:04:00,
2013-11-08 17:19:00,60.3,45.0,30.22,NE,46,1.0,2.0,58,0.00,,,0.00,weatherlink.com 1.10,2013-11-08 23:19:00,
2013-11-08 17:33:00,59.4,46.0,30.21,NE,34,0.0,2.0,61,0.00,,,0.00,weatherlink.com 1.10,2013-11-08 23:33:00,
2013-11-08 17:48:00,58.3,46.0,30.21,NNE,23,2.0,2.0,63,0.00,,,0.00,weatherlink.com 1.10,2013-11-08 23:48:00,
2013-11-08 18:03:00,56.8,47.0,30.21,NNE,15,1.0,2.0,70,0.00,,,0.00,weatherlink.com 1.10,2013-11-09 00:03:00,
2013-11-08 18:18:00,56.2,47.0,30.22,NNE,15,0.0,1.0,71,0.00,,,0.00,weatherlink.com 1.10,2013-11-09 00:18:00,
2013-11-08 18:33:00,55.3,46.0,30.22,NNE,15,0.0,0.0,72,0.00,,,0.00,weatherlink.com 1.10,2013-11-09 00:33:00,
2013-11-08 18:48:00,54.5,47.0,30.22,NNE,15,0.0,1.0,76,0.00,,,0.00,weatherlink.com 1.10,2013-11-09 00:48:00,
2013-11-08 19:03:00,53.9,48.0,30.22,NNE,15,0.0,1.0,79,0.00,,,0.00,weatherlink.com 1.10,2013-11-09 01:03:00,
2013-11-08 19:18:00,53.3,48.0,30.22,NNE,15,0.0,1.0,82,0.00,,,0.00,weatherlink.com 1.10,2013-11-09 01:18:00,
2013-11-08 19:32:00,52.7,47.0,30.23,NNE,15,0.0,1.0,82,0.00,,,0.00,weatherlink.com 1.10,2013-11-09 01:32:00,
2013-11-08 19:47:00,52.1,47.0,30.23,NNE,15,0.0,0.0,83,0.00,,,0.00,weatherlink.com 1.10,2013-11-09 01:47:00,
2013-11-08 20:02:00,51.6,47.0,30.23,NNE,15,0.0,0.0,84,0.00,,,0.00,weatherlink.com 1.10,2013-11-09 02:02:00,
2013-11-08 20:17:00,51.6,48.0,30.23,NNE,15,0.0,1.0,87,0.00,,,0.00,weatherlink.com 1.10,2013-11-09 02:17:00,
2013-11-08 20:32:00,51.1,48.0,30.23,NNE,14,0.0,0.0,88,0.00,,,0.00,weatherlink.com 1.10,2013-11-09 02:32:00,
2013-11-08 20:47:00,50.3,47.0,30.23,NNE,15,0.0,0.0,88,0.00,,,0.00,weatherlink.com 1.10,2013-11-09 02:47:00,
2013-11-08 21:02:00,49.9,47.0,30.23,NNE,15,0.0,0.0,90,0.00,,,0.00,weatherlink.com 1.10,2013-11-09 03:02:00,
2013-11-08 21:16:00,50.1,47.0,30.23,NNE,15,0.0,0.0,90,0.00,,,0.00,weatherlink.com 1.10,2013-11-09 03:16:00,
2013-11-08 21:31:00,50.6,48.0,30.23,NNE,16,0.0,1.0,91,0.00,,,0.00,weatherlink.com 1.10,2013-11-09 03:31:00,
2013-11-08 21:46:00,50.9,48.0,30.23,NNE,16,0.0,0.0,91,0.00,,,0.00,weatherlink.com 1.10,2013-11-09 03:46:00,
2013-11-08 22:01:00,51.8,49.0,30.23,NNW,341,0.0,1.0,91,0.00,,,0.00,weatherlink.com 1.10,2013-11-09 04:01:00,
2013-11-08 22:16:00,51.7,49.0,30.23,NNW,341,0.0,0.0,89,0.00,,,0.00,weatherlink.com 1.10,2013-11-09 04:16:00,
2013-11-08 22:31:00,51.4,48.0,30.22,NNW,341,0.0,0.0,89,0.00,,,0.00,weatherlink.com 1.10,2013-11-09 04:31:00,
2013-11-08 22:46:00,51.2,48.0,30.22,NNW,341,0.0,0.0,90,0.00,,,0.00,weatherlink.com 1.10,2013-11-09 04:46:00,
2013-11-08 23:01:00,51.5,49.0,30.21,NNW,341,0.0,1.0,90,0.00,,,0.00,weatherlink.com 1.10,2013-11-09 05:01:00,
2013-11-08 23:16:00,51.3,48.0,30.21,NNW,342,0.0,0.0,90,0.00,,,0.00,weatherlink.com 1.10,2013-11-09 05:16:00,
2013-11-08 23:31:00,51.2,48.0,30.21,NNW,344,0.0,1.0,90,0.00,,,0.00,weatherlink.com 1.10,2013-11-09 05:31:00,
2013-11-08 23:46:00,51.4,49.0,30.20,ENE,68,0.0,1.0,90,0.00,,,0.00,weatherlink.com 1.10,2013-11-09 05:46:00,